ROMMA est une association bénévole à but non lucratif. Votre soutien est indispensable : ADHERER à ROMMA ou FAIRE un DON

Chambon - (38, Isère)

Oisans (2460 m)   Longitude: 06° 10' 42" E   Latitude: 45° 01' 32" N Station partenaire n°803
 

Détail journalier du     <<     >>

Température Humidité Vent Dir Rafale Dir. rafale Neige 1 Neige 2
Heure (°C) (%) (km/h) (km/h) (cm) (cm)
01:00 2.6294ENE11ENE175213
02:00 2.6323NNE10NNE175213
03:00 2.4333E9SO175213
04:00 1.8343SO6SO175213
05:00 1.7355SSO10SSO175213
06:00 1.8346SSO11SSO175213
07:00 1.2353SSO9SSO175213
08:00 1.4352O5O175213
09:00 4.4293S6S174213
10:00 7.5243S9SO174212
11:00 4.3308SSO15SSO175213
12:00 5.0299SSO14SSO174213
13:00 4.73411SO17SO175213
14:00 4.94012SO18SO174213
15:00 4.84112SSO19SO174213
16:00 4.93914SO24SO174213
17:00 5.03711SO23SO173213
18:00 3.44110SO20SO173213
19:00 2.7469SSO14SO173213
20:00 0.46710SO18SO173213
21:00 0.07211SO19SO173213
22:00 -0.26110SSO13SSO173213
23:00 -0.35110SSO13OSO173213
minuit -0.7498OSO13OSO173213

Graphique du 24-03-2019

 

Serveur OMMA